IRIDIUM 68 [-]

Last updated on Thu Jun 07 2018 01:20:06 GMT+0100 (British Summer Time)

1 25291U 98021G 18157.51998795 .15483272 -14506-5 27879-3 0 9994 2 25291 86.3397 73.4850 0055354 87.3193 274.3240 16.40310493 56113

Satellite not in orbit